Regional Weather Roundup
Issued by NWS Jackson, KY

Home | Current Version | Previous Version | Graphics & Text | Print | Product List | Glossary On
Versions: 1 2 3 4 5 6 7 8 9 10 11 12 13 14 15 16 17 18 19 20 21 22 23 24 25 26 27
000
ASUS43 KJKL 200910
RWRJKL

EAST KENTUCKY HOURLY WEATHER ROUNDUP
NATIONAL WEATHER SERVICE JACKSON KY
500 AM EDT SUN MAY 20 2018

NOTE: "FAIR" INDICATES FEW OR NO CLOUDS BELOW 12,000 FEET WITH
NO SIGNIFICANT WEATHER AND/OR OBSTRUCTIONS TO VISIBILITY.

* THESE REPORTS ARE NOT UNDER NWS QUALITY CONTROL AND MAY NOT
  REPORT WEATHER SUCH AS PRECIPITATION AND FOG.

KYZ079-080-083-085-087-088-110-112-115-119-120-201000
...EASTERN KENTUCKY...

CITY           SKY/WX    TMP DP  RH WIND       PRES   REMARKS
JACKSON          N/A     65  63  93 CALM      30.10R
LONDON           N/A     64  63  96 S3        30.10S FOG
SOMERSET*      FOG       64  64 100 CALM      30.11S VSB 1/2
WILLIAMSBURG*  CLOUDY    63  63 100 CALM      30.12R VSB<1/4
MIDDLESBORO*   CLOUDY    64  64 100 CALM      30.12S
HARLAN APT*    CLOUDY    64  63  99 CALM      30.14R
PIKE CO APT*     N/A     62  62 100 CALM      30.10R FOG
BIG SANDY APT*   N/A     65  65 100 SW5       30.09R
MOREHEAD APT*  CLOUDY    66  64  94 SW3       30.10R FOG
ASHLAND*       CLOUDY    66  64  94 NW15      30.06R
$$

KYZ035-036-041-042-044-050-067-078-099-201000
...CENTRAL KENTUCKY...

CITY           SKY/WX    TMP DP  RH WIND       PRES   REMARKS
MT STERLING*     N/A     66  66 100 SW5       30.09S FOG
FLEMING/MASON*   N/A     65  65 100 SW7       30.08R FOG
DANVILLE*        N/A     66  64  94 CALM      30.09S
LEXINGTON        N/A     68  65  90 S7        30.07S FOG
FRANKFORT        N/A     67  63  87 SW5       30.04F
LOUISVILLE     MOCLDY    70  65  84 SE6       30.02F
LEBANON*         N/A     68  68 100 S5        30.06F
GLASGOW*         N/A     67  63  87 CALM      30.08F
BOWLING GREEN  MOCLDY    69  65  86 S5        30.07F
$$

KYZ091>093-OHZ055-061-077-WVZ005-015-034-035-042-201000
...SOUTHERN OHIO/WEST VIRGINIA...

CITY           SKY/WX    TMP DP  RH WIND       PRES   REMARKS
COVINGTON      MOCLDY    66  64  93 SW5       30.03R
COLUMBUS       MOCLDY    69  65  86 W6        30.00R
DAYTON           N/A     62  62 100 NW6       30.03S FOG
WILMINGTON       N/A     64  64 100 SW6       30.02S FOG
HUNTINGTON       N/A     66  63  90 SW3       30.05R
CHARLESTON       N/A     62  62 100 CALM      30.05R
PINEVILLE*     FOG       61  60  97 MISG      30.16S VSB 1/2
BECKLEY          N/A     60  60 100 SW3       30.13R
BLUEFIELD      CLOUDY    61  61 100 SW3       30.16R
LOGAN CO APT*  FOG       63  63 100 CALM      30.10R VSB<1/4
$$

VAZ002-007-008-TNZ017-027-036-066-071-201000
...SOUTHWEST VIRGINIA/EAST TENNESSEE...

CITY           SKY/WX    TMP DP  RH WIND       PRES   REMARKS
WISE*          FOG       59  59 100 CALM      30.18R VSB 1/4
JONESVILLE*    FOG       61  61 100 CALM      30.16R VSB<1/4
ABINGDON*      CLOUDY    65  65 100 CALM      30.16R FOG
BRISTOL          N/A     61  61 100 CALM      30.12R FOG
MORRISTOWN*    CLOUDY    66  66 100 N5        30.11R
SEVIERVILLE*   MOSUNNY   64  64 100 CALM      30.10R
KNOXVILLE        N/A     67  66  97 N5        30.09R
LAFOLLETTE*    FOG       63  63 100 CALM      30.14S VSB 1
OAK RIDGE        N/A     67  67 100 CALM      30.10S
CROSSVILLE       N/A     65  63  93 CALM      30.13S
NASHVILLE      MOCLDY    70  60  70 CALM      30.09S
$$

...KEY TO REMARKS...
VSB - VISIBILITY IN MILES
WCI - WIND CHILL INDEX
HX  - HEAT INDEX

$$




USA.gov is the U.S. government's official web portal to all federal, state and local government web resources and services.